FW9039 Weather Reports


time (UTC)temp
C
wind
direction
speed
KPH
gust
KPH
rain 1hr
cm
rain 24hr
cm
rain mn
cm
humidity
%
barometer
mb
20260503005511 25 15 1.6 6.4 0.00 0.00 0.00 16 1012.3
20260503005012 26 0 0.0 3.2 0.00 0.00 0.00 17 1012.4
20260503004531 26 53 0.0 3.2 0.00 0.00 0.00 16 1012.4
20260503004010 26 0 0.0 3.2 0.00 0.00 0.00 16 1012.4
20260503003509 26 0 0.0 3.2 0.00 0.00 0.00 17 1012.3
20260503003046 26 0 0.0 1.6 0.00 0.00 0.00 17 1012.5
20260503002511 26 0 0.0 1.6 0.00 0.00 0.00 18 1012.5
20260503002010 26 0 0.0 4.8 0.00 0.00 0.00 18 1012.5
20260503001547 26 0 0.0 4.8 0.00 0.00 0.00 20 1012.5
20260503001011 26 334 0.0 3.2 0.00 0.00 0.00 16 1012.7
20260503000509 26 170 0.0 3.2 0.00 0.00 0.00 15 1012.7
20260503000032 26 0 0.0 3.2 0.00 0.00 0.00 15 1012.7
20260502235510 26 167 0.0 3.2 0.00 0.00 0.00 17 1012.6
20260502235010 27 110 0.0 3.2 0.00 0.00 0.00 16 1012.6
20260502234535 27 0 0.0 6.4 0.00 0.00 0.00 16 1012.6
20260502234011 27 139 0.0 6.4 0.00 0.00 0.00 18 1012.8
20260502233512 27 205 0.0 3.2 0.00 0.00 0.00 15 1012.8
20260502233031 27 250 0.0 4.8 0.00 0.00 0.00 15 1012.8
20260502232510 27 0 0.0 4.8 0.00 0.00 0.00 17 1012.8
20260502232012 27 103 1.6 4.8 0.00 0.00 0.00 14 1012.8
20260502231528 27 45 0.0 4.8 0.00 0.00 0.00 17 1013.0
20260502231011 27 3 1.6 4.8 0.00 0.00 0.00 17 1012.9
20260502230508 27 183 0.0 3.2 0.00 0.00 0.00 14 1013.0
20260502230033 27 0 0.0 4.8 0.00 0.00 0.00 16 1013.1
20260502225509 27 113 0.0 4.8 0.00 0.00 0.00 16 1013.2
20260502225014 26 146 0.0 4.8 0.00 0.00 0.00 16 1013.2
20260502224530 27 47 0.0 4.8 0.00 0.00 0.00 14 1013.2
20260502224011 27 155 0.0 6.4 0.00 0.00 0.00 16 1013.3
20260502223511 27 182 1.6 6.4 0.00 0.00 0.00 16 1013.4
20260502223031 27 96 0.0 8.0 0.00 0.00 0.00 16 1013.6
20260502222508 27 198 3.2 8.0 0.00 0.00 0.00 16 1013.7
20260502222009 27 0 0.0 9.7 0.00 0.00 0.00 19 1013.7
20260502221529 27 0 1.6 9.7 0.00 0.00 0.00 17 1013.8
20260502221008 27 190 3.2 9.7 0.00 0.00 0.00 16 1013.9
20260502220512 27 214 3.2 6.4 0.00 0.00 0.00 17 1013.9
20260502220033 27 212 1.6 12.9 0.00 0.00 0.00 18 1013.9
20260502215515 27 176 3.2 12.9 0.00 0.00 0.00 18 1014.0
20260502215007 27 65 1.6 8.0 0.00 0.00 0.00 18 1014.0
20260502214527 27 101 3.2 9.7 0.00 0.00 0.00 18 1014.2
20260502214011 27 79 3.2 9.7 0.00 0.00 0.00 20 1014.2
20260502213513 27 155 4.8 9.7 0.00 0.00 0.00 19 1014.3
20260502213033 27 231 3.2 8.0 0.00 0.00 0.00 21 1014.3
20260502212512 27 289 1.6 8.0 0.00 0.00 0.00 20 1014.4
20260502212018 27 193 1.6 6.4 0.00 0.00 0.00 20 1014.5
20260502211530 26 134 1.6 8.0 0.00 0.00 0.00 20 1014.5
20260502211010 26 287 3.2 8.0 0.00 0.00 0.00 21 1014.7
20260502210513 26 176 3.2 6.4 0.00 0.00 0.00 20 1014.7
20260502210027 27 239 3.2 8.0 0.00 0.00 0.00 19 1014.7
20260502205511 27 260 3.2 8.0 0.00 0.00 0.00 18 1014.7
20260502205013 27 244 1.6 8.0 0.00 0.00 0.00 18 1014.9
20260502204531 27 89 1.6 8.0 0.00 0.00 0.00 17 1014.8
20260502204009 27 176 3.2 16.1 0.00 0.00 0.00 18 1015.0
20260502203512 27 212 4.8 16.1 0.00 0.00 0.00 18 1015.0
20260502203029 27 151 1.6 9.7 0.00 0.00 0.00 18 1015.0
20260502202509 27 195 3.2 9.7 0.00 0.00 0.00 18 1015.2
20260502202011 27 268 3.2 12.9 0.00 0.00 0.00 19 1015.2
20260502201528 27 312 3.2 14.5 0.00 0.00 0.00 20 1015.2
20260502201011 27 169 6.4 14.5 0.00 0.00 0.00 17 1015.3
20260502200510 27 276 3.2 8.0 0.00 0.00 0.00 19 1015.3
20260502200029 27 269 3.2 11.3 0.00 0.00 0.00 21 1015.3
20260502195510 27 226 3.2 11.3 0.00 0.00 0.00 21 1015.4
20260502195010 27 196 3.2 9.7 0.00 0.00 0.00 21 1015.4
20260502194530 26 244 3.2 9.7 0.00 0.00 0.00 21 1015.4
20260502194010 26 240 4.8 9.7 0.00 0.00 0.00 20 1015.6
20260502193511 26 155 1.6 6.4 0.00 0.00 0.00 23 1015.5
20260502193032 25 323 1.6 9.7 0.00 0.00 0.00 27 1015.7
20260502192509 25 0 0.0 9.7 0.00 0.00 0.00 29 1015.7
20260502192009 25 101 1.6 9.7 0.00 0.00 0.00 28 1015.9
20260502191530 25 109 0.0 4.8 0.00 0.00 0.00 30 1015.8
20260502191010 25 120 1.6 4.8 0.00 0.00 0.00 29 1015.9
20260502190513 25 46 0.0 4.8 0.00 0.00 0.00 34 1016.0
20260502190029 25 54 0.0 3.2 0.00 0.00 0.00 32 1016.1
20260502185512 24 96 0.0 3.2 0.00 0.00 0.00 32 1016.2
20260502185013 24 72 1.6 3.2 0.00 0.00 0.00 30 1016.2
20260502184550 24 329 0.0 4.8 0.00 0.00 0.00 30 1016.2
20260502184011 24 172 0.0 4.8 0.00 0.00 0.00 32 1016.4
20260502183511 23 340 0.0 4.8 0.00 0.00 0.00 34 1016.5
20260502183030 23 355 1.6 4.8 0.00 0.00 0.00 32 1016.5
20260502182509 23 0 0.0 3.2 0.00 0.00 0.00 33 1016.6
20260502182011 22 346 1.6 3.2 0.00 0.00 0.00 34 1016.6
20260502181531 22 25 0.0 3.2 0.00 0.00 0.00 35 1016.7
20260502181015 22 0 0.0 3.2 0.00 0.00 0.00 36 1016.8
20260502180510 22 56 0.0 3.2 0.00 0.00 0.00 36 1016.9
20260502170511 18 47 3.2 6.4 0.00 0.00 0.00 44 1017.3
20260502164012 17 9 0.0 4.8 0.00 0.00 0.00 47 1017.4
20260502163512 17 68 1.6 4.8 0.00 0.00 0.00 47 1017.4
20260502163037 17 22 0.0 6.4 0.00 0.00 0.00 47 1017.5
20260502162514 16 72 1.6 6.4 0.00 0.00 0.00 47 1017.4
20260502162017 16 355 3.2 6.4 0.00 0.00 0.00 47 1017.5
20260502161535 16 66 0.0 3.2 0.00 0.00 0.00 49 1017.6
20260502161010 16 343 0.0 3.2 0.00 0.00 0.00 50 1017.6
20260502160512 15 0 0.0 3.2 0.00 0.00 0.00 53 1017.7
20260502152012 12 349 0.0 3.2 0.00 0.00 0.00 58 1017.5
20260502151529 12 0 0.0 3.2 0.00 0.00 0.00 59 1017.4
20260502151011 11 0 0.0 1.6 0.00 0.00 0.00 60 1017.4
20260502150510 11 0 0.0 0.0 0.00 0.00 0.00 62 1017.4
20260502130511 8 0 0.0 1.6 0.00 0.00 0.00 66 1016.2
20260502123515 9 0 0.0 1.6 0.00 0.00 0.00 65 1016.1
20260502123032 9 0 0.0 1.6 0.00 0.00 0.00 61 1016.3
20260502122508 10 0 0.0 0.0 0.00 0.00 0.00 60 1016.2
20260502122011 10 0 0.0 0.0 0.00 0.00 0.00 57 1016.1
20260502121529 10 0 0.0 0.0 0.00 0.00 0.00 57 1016.3
20260502121010 10 0 0.0 0.0 0.00 0.00 0.00 58 1016.2
20260502120511 10 0 0.0 0.0 0.00 0.00 0.00 55 1016.2
20260502115513 10 0 0.0 0.0 0.00 0.00 0.00 55 1016.3
20260502115011 11 0 0.0 0.0 0.00 0.00 0.00 55 1016.4
20260502114529 11 0 0.0 1.6 0.00 0.00 0.00 53 1016.4
20260502114008 11 0 0.0 1.6 0.00 0.00 0.00 53 1016.4
20260502113512 11 0 0.0 1.6 0.00 0.00 0.00 52 1016.5
20260502113028 11 0 0.0 0.0 0.00 0.00 0.00 51 1016.4
20260502112511 11 0 0.0 1.6 0.00 0.00 0.00 52 1016.4
20260502112012 11 0 0.0 1.6 0.00 0.00 0.00 52 1016.5
20260502111530 11 0 0.0 1.6 0.00 0.00 0.00 50 1016.5
20260502111011 12 0 0.0 1.6 0.00 0.00 0.00 50 1016.5
20260502110508 12 0 0.0 3.2 0.00 0.00 0.00 49 1016.5
20260502110030 12 0 0.0 3.2 0.00 0.00 0.00 49 1016.5
20260502105512 12 0 0.0 3.2 0.00 0.00 0.00 48 1016.6
20260502105011 12 0 0.0 3.2 0.00 0.00 0.00 49 1016.5
20260502104536 12 0 0.0 3.2 0.00 0.00 0.00 49 1016.6
20260502104008 12 0 0.0 1.6 0.00 0.00 0.00 49 1016.5
20260502103511 12 186 0.0 1.6 0.00 0.00 0.00 49 1016.5
20260502103028 12 0 0.0 3.2 0.00 0.00 0.00 48 1016.7
20260502102510 12 0 0.0 3.2 0.00 0.00 0.00 48 1016.6
20260502102011 12 326 0.0 3.2 0.00 0.00 0.00 48 1016.6
20260502101528 12 0 0.0 3.2 0.00 0.00 0.00 49 1016.6
20260502101008 12 0 0.0 1.6 0.00 0.00 0.00 50 1016.7
20260502100512 12 0 0.0 0.0 0.00 0.00 0.00 50 1016.6
20260502091528 11 0 0.0 1.6 0.00 0.00 0.00 52 1016.6
20260502091009 11 0 0.0 0.0 0.00 0.00 0.00 51 1016.7
20260502090510 11 0 0.0 1.6 0.00 0.00 0.00 53 1016.6
20260502071526 9 0 0.0 0.0 0.00 0.00 0.00 64 1016.8
20260502071008 8 0 0.0 0.0 0.00 0.00 0.00 65 1016.8
20260502070511 9 0 0.0 0.0 0.00 0.00 0.00 64 1017.0
20260502070032 9 0 0.0 0.0 0.00 0.00 0.00 63 1016.9
20260502065511 9 0 0.0 0.0 0.00 0.00 0.00 63 1016.9
20260502065009 9 0 0.0 0.0 0.00 0.00 0.00 63 1016.9
20260502064528 9 0 0.0 0.0 0.00 0.00 0.00 64 1017.0
20260502064008 9 0 0.0 0.0 0.00 0.00 0.00 63 1016.9
20260502063510 9 0 0.0 0.0 0.00 0.00 0.00 63 1017.0
20260502063030 9 0 0.0 0.0 0.00 0.00 0.00 63 1016.8
20260502062510 9 0 0.0 0.0 0.00 0.00 0.00 63 1017.0
20260502062015 9 0 0.0 0.0 0.00 0.00 0.00 63 1017.0
20260502061529 9 0 0.0 0.0 0.00 0.00 0.00 63 1016.9
20260502061011 10 0 0.0 0.0 0.00 0.00 0.00 63 1016.9
20260502060508 10 0 0.0 0.0 0.00 0.00 0.00 62 1016.9
20260502060028 10 0 0.0 0.0 0.00 0.00 0.00 62 1017.0
20260502055510 10 0 0.0 0.0 0.00 0.00 0.00 62 1017.0
20260502055011 10 0 0.0 0.0 0.00 0.00 0.00 62 1017.1
20260502054532 10 0 0.0 0.0 0.00 0.00 0.00 60 1017.2
20260502054008 10 0 0.0 0.0 0.00 0.00 0.00 60 1017.1
20260502053512 10 0 0.0 0.0 0.00 0.00 0.00 60 1017.1
20260502053027 11 0 0.0 0.0 0.00 0.00 0.00 59 1017.2
20260502052513 11 0 0.0 0.0 0.00 0.00 0.00 58 1017.1
20260502052011 11 0 0.0 0.0 0.00 0.00 0.00 57 1017.1
20260502051531 11 0 0.0 0.0 0.00 0.00 0.00 57 1017.1
20260502051011 11 0 0.0 0.0 0.00 0.00 0.00 57 1017.0
20260502050508 11 0 0.0 0.0 0.00 0.00 0.00 57 1017.1
20260502050030 12 0 0.0 0.0 0.00 0.00 0.00 56 1017.1
20260502045508 12 0 0.0 0.0 0.00 0.00 0.00 55 1017.1
20260502045008 12 0 0.0 0.0 0.00 0.00 0.00 54 1017.1
20260502044530 12 0 0.0 0.0 0.00 0.00 0.00 54 1017.1
20260502044010 12 0 0.0 0.0 0.00 0.00 0.00 53 1017.1
20260502043510 12 0 0.0 0.0 0.00 0.00 0.00 51 1017.2
20260502043028 13 0 0.0 0.0 0.00 0.00 0.00 50 1017.4
20260502042511 13 0 0.0 0.0 0.00 0.00 0.00 49 1017.4
20260502042011 13 0 0.0 0.0 0.00 0.00 0.00 48 1017.4
20260502041535 13 0 0.0 0.0 0.00 0.00 0.00 48 1017.4
20260502041010 13 0 0.0 0.0 0.00 0.00 0.00 47 1017.2
20260502040510 13 0 0.0 0.0 0.00 0.00 0.00 46 1017.1
20260502040037 14 0 0.0 0.0 0.00 0.00 0.00 46 1017.2
20260502035511 14 0 0.0 1.6 0.00 0.00 0.00 45 1017.2
20260502035014 14 0 0.0 1.6 0.00 0.00 0.00 46 1017.2
20260502034528 15 0 0.0 0.0 0.00 0.00 0.00 46 1017.2
20260502034010 15 0 0.0 0.0 0.00 0.00 0.00 45 1017.2
20260502033509 15 0 0.0 0.0 0.00 0.00 0.00 44 1017.0
20260502033030 15 0 0.0 0.0 0.00 0.00 0.00 43 1017.0
20260502032509 16 0 0.0 0.0 0.00 0.00 0.00 42 1017.0
20260502032011 16 0 0.0 0.0 0.00 0.00 0.00 41 1016.9
20260502031526 16 0 0.0 0.0 0.00 0.00 0.00 41 1016.8
20260502031011 16 0 0.0 0.0 0.00 0.00 0.00 40 1016.7
20260502030510 17 0 0.0 0.0 0.00 0.00 0.00 39 1016.7
20260502030035 17 0 0.0 0.0 0.00 0.00 0.00 37 1016.6
20260502025511 17 0 0.0 0.0 0.00 0.00 0.00 37 1016.5
20260502025008 17 0 0.0 0.0 0.00 0.00 0.00 35 1016.6
20260502024540 18 0 0.0 0.0 0.00 0.00 0.00 34 1016.6
20260502024009 18 0 0.0 0.0 0.00 0.00 0.00 32 1016.5
20260502023511 19 0 0.0 0.0 0.00 0.00 0.00 30 1016.5
20260502023027 19 0 0.0 0.0 0.00 0.00 0.00 29 1016.5
20260502022509 20 0 0.0 0.0 0.00 0.00 0.00 28 1016.5
20260502022009 20 0 0.0 0.0 0.00 0.00 0.00 26 1016.6
20260502021526 20 0 0.0 0.0 0.00 0.00 0.00 26 1016.6
20260502021010 20 0 0.0 0.0 0.00 0.00 0.00 26 1016.6
20260502020510 20 0 0.0 0.0 0.00 0.00 0.00 26 1016.6
20260502020029 21 0 0.0 0.0 0.00 0.00 0.00 25 1016.6
20260502015511 21 0 0.0 0.0 0.00 0.00 0.00 24 1016.6
20260502015010 21 0 0.0 0.0 0.00 0.00 0.00 24 1016.7
20260502014533 21 0 0.0 1.6 0.00 0.00 0.00 23 1016.7
20260502014009 21 0 0.0 1.6 0.00 0.00 0.00 23 1016.7
20260502013506 22 0 0.0 1.6 0.00 0.00 0.00 22 1016.6
20260502013030 22 91 0.0 3.2 0.00 0.00 0.00 21 1016.7
20260502012508 22 0 0.0 3.2 0.00 0.00 0.00 21 1016.7
20260502012008 22 102 0.0 3.2 0.00 0.00 0.00 20 1016.7
20260502011528 22 131 0.0 3.2 0.00 0.00 0.00 21 1016.8
20260502011007 22 187 0.0 3.2 0.00 0.00 0.00 21 1016.7
20260502010508 22 0 0.0 3.2 0.00 0.00 0.00 21 1016.8
20260502010029 22 199 0.0 4.8 0.00 0.00 0.00 20 1016.8